SL-8 R/B

Satellite information

Favourite Embed

Satellite Type and Status

ROCKET BODYIN ORBIT

Key statistics

Satellite SL-8 R/B at a glance.

Uptime

10585

Days in orbit

Revolutions

≈ 13.7

Per day

Orbit

LEO

Low Earth Orbit

Inclination

82.9

Latest

Satellite identification and parameters

Extended collection of information and parameters for SL-8 R/B.

Object identification

Identified? True

Debris? False

Object name: SL-8 R/B

International designator: 1996-071B

Object number (NORAD): 24678

Object ID (CCSDS): 24678

Country: COMMONWEALTH OF INDEPENDENT STATES (CIS)

Current information (Y/N): Y

RCS size: LARGE

Orbital parameters

Period: 104.816 minutes

Inclination: 82.9383 deg

SMA: 7363.958 km

Apoapsis: 1003.417 km

Periapsis: 968.229 km

RAAN: 315.265 deg

Eccentricy: 0.00238918

Argument of periapsis: 331.6601 deg

Mean anomaly: 139.7615 deg

Mean motion: 13.73838962 rev/day

Mean motion (dot): 0.00000129 rev/day2

B* drag term: 0.00012168104 1/REarth

Two-line elements (TLE)

Creation date: Dec. 12, 2025, 10:14 a.m.

Reference frame: TEME

Reference center: EARTH

Epoch: Dec. 12, 2025, 7:16 a.m. UTC

TLE line 0: 0 SL-8 R/B

TLE line 1: 1 24678U 96071B 25346.30324103 .00000129 00000-0 12168-3 0 9999

TLE line 2: 2 24678 82.9383 315.2650 0023892 331.6601 139.7615 13.73838962452663

Live tracking on map

Real-time ground track for satellite SL-8 R/B.

In-orbit conjunctions

A list of the most updated potential collisions computed for object SL-8 R/B.

Target Orbit TCA Probability of collision Miss distance Type
COSMOS 1275 DEB LEO 2025-11-11 21:26:53 0.0002402082 247.0 (m) DEBRIS
SL-14 DEB LEO 2024-11-10 20:49:50 0.000217706 384.0 (m) DEBRIS
COSMOS 1375 DEB LEO 2024-11-03 07:27:41 0.001281707 55.0 (m) DEBRIS
THOR ABLESTAR DEB LEO 2024-10-21 06:34:05 0.0002439865 74.0 (m) DEBRIS
SL-8 R/B LEO 2024-09-12 21:10:08 0.0001058083 442.0 (m) ROCKET BODY

Associated space launch

Navigation satellite providing location information for the Tsiklon-B navigation system

SL-8 R/B was lifted into orbit during the mission ‘Kosmos-3M | Parus 87’, on board a Kosmos-3M space rocket.

The launch took place on Dec. 20, 1996, 6:43 a.m. from 132/1 (132L).

For more information about the launch, click the button.

Launch to space Kosmos-3M | Parus 87
Kosmos-3M | Parus 87

Agency: N/A

Status: Launch Successful

Launch date: Dec. 20, 1996, 6:43 a.m. UTC

Rocket: Kosmos-3M

Launch pad: 132/1 (132L)

Location: Plesetsk Cosmodrome, Russian Federation

...

Latest news about this satellite

There are no fresh news available about this satellite. Check back as we update our databases every day.


Newsletter sign-up

Weekly statistics, charts and insights to help you stay on top of the space industry.